Location: Ostrava
(49.8330°N, 18.2830°E)
Time: 11:27:07
(UTC+02:00)

Cosmos 2221 - Visible Passes

Search period start: 23 August 2014 00:00
Search period end: 02 September 2014 00:00
Orbit: 598 x 623 km, 82.5° (Epoch: 21 August)

Date Brightness Start Highest point End Pass type
(mag) Time Alt. Az. Time Alt. Az. Time Alt. Az.
23 Aug 3.7 00:35:22 38° NW 00:35:22 38° NW 00:38:47 10° N visible
23 Aug 3.9 23:12:56 30° NE 23:12:56 30° NE 23:15:40 10° NNE visible
24 Aug 4.3 00:49:54 26° WNW 00:49:54 26° WNW 00:53:09 10° NNW visible
24 Aug 3.5 23:27:28 42° NE 23:27:28 42° NE 23:30:32 10° NNE visible
25 Aug 4.8 01:04:26 17° WNW 01:04:26 17° WNW 01:07:16 10° NNW visible
25 Aug 4.9 22:05:00 11° ENE 22:05:00 11° ENE 22:05:28 10° ENE visible
25 Aug 3.3 23:41:58 50° N 23:41:58 50° N 23:45:15 10° N visible
26 Aug 5.2 01:18:57 11° WNW 01:19:19 11° WNW 01:20:41 10° NW visible
26 Aug 4.5 22:19:31 17° ENE 22:19:31 17° ENE 22:21:19 10° NE visible
26 Aug 3.6 23:56:29 42° NW 23:56:29 42° NW 23:59:49 10° N visible
27 Aug 4.0 22:34:00 25° ENE 22:34:00 25° ENE 22:36:31 10° NNE visible
28 Aug 4.2 00:10:58 30° NW 00:10:58 30° NW 00:14:15 10° N visible
28 Aug 3.5 22:48:29 37° NE 22:48:29 37° NE 22:51:27 10° NNE visible
29 Aug 4.7 00:25:27 20° WNW 00:25:27 20° WNW 00:28:29 10° NNW visible
29 Aug 3.2 23:02:57 50° NNE 23:02:57 50° NNE 23:06:12 10° NNE visible
30 Aug 5.1 00:39:54 13° WNW 00:40:10 13° WNW 00:42:16 10° NNW visible
30 Aug 4.5 21:40:26 15° ENE 21:40:26 15° ENE 21:41:57 10° NE visible
30 Aug 3.4 23:17:23 49° NNW 23:17:23 49° NNW 23:20:50 10° N visible
31 Aug 4.0 21:54:52 23° ENE 21:54:52 23° ENE 21:57:18 10° NNE visible
31 Aug 3.9 23:31:49 35° NW 23:31:49 35° NW 23:35:19 10° N visible
01 Sep 3.5 22:09:16 35° ENE 22:09:16 35° ENE 22:12:19 10° NNE visible
01 Sep 4.5 23:46:14 24° WNW 23:46:14 24° WNW 23:49:37 10° NNW visible
